| time (UTC) | temp C | wind direction | speed KPH | gust KPH | rain 1hr cm | rain 24hr cm | rain mn cm | humidity % | barometer mb |
| 20260510224818 | 25 | 227 | 1.6 | 3.2 | 0.00 | 0.00 | 0.00 | 34 | 1015.6 |
| 20260510224314 | 25 | 224 | 1.6 | 3.2 | 0.00 | 0.00 | 0.00 | 34 | 1015.8 |
| 20260510223811 | 26 | 217 | 1.6 | 1.6 | 0.00 | 0.00 | 0.00 | 35 | 1015.6 |
| 20260510223308 | 26 | 225 | 1.6 | 3.2 | 0.00 | 0.00 | 0.00 | 34 | 1015.8 |
| 20260510222806 | 26 | 212 | 1.6 | 1.6 | 0.00 | 0.00 | 0.00 | 33 | 1015.6 |
| 20260510222305 | 26 | 208 | 1.6 | 3.2 | 0.00 | 0.00 | 0.00 | 35 | 1015.7 |
| 20260510221757 | 26 | 225 | 1.6 | 4.8 | 0.00 | 0.00 | 0.00 | 32 | 1015.8 |
| 20260510221255 | 26 | 238 | 1.6 | 4.8 | 0.00 | 0.00 | 0.00 | 32 | 1015.7 |
| 20260510220751 | 26 | 238 | 1.6 | 3.2 | 0.00 | 0.00 | 0.00 | 33 | 1015.8 |
| 20260510220247 | 26 | 237 | 3.2 | 4.8 | 0.00 | 0.00 | 0.00 | 33 | 1015.7 |
| 20260510215744 | 26 | 217 | 1.6 | 3.2 | 0.00 | 0.00 | 0.00 | 33 | 1015.8 |
| 20260510215241 | 27 | 47 | 0.0 | 1.6 | 0.00 | 0.00 | 0.00 | 34 | 1015.6 |
| 20260510214738 | 27 | 183 | 1.6 | 3.2 | 0.00 | 0.00 | 0.00 | 31 | 1015.6 |
| 20260510214236 | 27 | 223 | 0.0 | 3.2 | 0.00 | 0.00 | 0.00 | 29 | 1015.5 |
| 20260510213732 | 27 | 150 | 1.6 | 3.2 | 0.00 | 0.00 | 0.00 | 30 | 1015.7 |
| 20260510213229 | 28 | 237 | 3.2 | 3.2 | 0.00 | 0.00 | 0.00 | 30 | 1015.5 |
| 20260510212725 | 28 | 226 | 3.2 | 3.2 | 0.00 | 0.00 | 0.00 | 29 | 1015.7 |
| 20260510212223 | 27 | 271 | 1.6 | 4.8 | 0.00 | 0.00 | 0.00 | 31 | 1015.7 |
| 20260510211719 | 27 | 250 | 1.6 | 4.8 | 0.00 | 0.00 | 0.00 | 30 | 1015.5 |
| 20260510211219 | 27 | 221 | 3.2 | 4.8 | 0.00 | 0.00 | 0.00 | 29 | 1015.6 |
| 20260510210716 | 27 | 233 | 1.6 | 1.6 | 0.00 | 0.00 | 0.00 | 28 | 1015.7 |
| 20260510210211 | 28 | 225 | 3.2 | 4.8 | 0.00 | 0.00 | 0.00 | 28 | 1015.8 |
| 20260510205711 | 28 | 268 | 0.0 | 3.2 | 0.00 | 0.00 | 0.00 | 28 | 1015.8 |
| 20260510205206 | 27 | 229 | 3.2 | 6.4 | 0.00 | 0.00 | 0.00 | 29 | 1015.6 |
| 20260510204703 | 27 | 222 | 3.2 | 4.8 | 0.00 | 0.00 | 0.00 | 30 | 1015.6 |
| 20260510204200 | 27 | 219 | 0.0 | 1.6 | 0.00 | 0.00 | 0.00 | 30 | 1015.7 |
| 20260510203657 | 27 | 224 | 3.2 | 3.2 | 0.00 | 0.00 | 0.00 | 29 | 1015.7 |
| 20260510203154 | 27 | 192 | 1.6 | 9.7 | 0.00 | 0.00 | 0.00 | 28 | 1016.0 |
| 20260510202653 | 27 | 205 | 3.2 | 3.2 | 0.00 | 0.00 | 0.00 | 31 | 1015.7 |
| 20260510202148 | 27 | 227 | 3.2 | 3.2 | 0.00 | 0.00 | 0.00 | 30 | 1015.8 |
| 20260510201646 | 27 | 264 | 3.2 | 6.4 | 0.00 | 0.00 | 0.00 | 28 | 1015.9 |
| 20260510201143 | 27 | 217 | 6.4 | 9.7 | 0.00 | 0.00 | 0.00 | 30 | 1016.0 |
| 20260510200640 | 27 | 75 | 1.6 | 3.2 | 0.00 | 0.00 | 0.00 | 29 | 1015.9 |
| 20260510200137 | 27 | 216 | 4.8 | 9.7 | 0.00 | 0.00 | 0.00 | 29 | 1016.1 |
| 20260510195634 | 27 | 60 | 0.0 | 3.2 | 0.00 | 0.00 | 0.00 | 29 | 1016.1 |
| 20260510195131 | 27 | 42 | 1.6 | 1.6 | 0.00 | 0.00 | 0.00 | 28 | 1016.0 |
| 20260510194630 | 27 | 261 | 3.2 | 3.2 | 0.00 | 0.00 | 0.00 | 32 | 1016.2 |
| 20260510194127 | 27 | 82 | 0.0 | 1.6 | 0.00 | 0.00 | 0.00 | 30 | 1016.3 |
| 20260510193622 | 26 | 268 | 0.0 | 1.6 | 0.00 | 0.00 | 0.00 | 28 | 1016.3 |
| 20260510193118 | 26 | 119 | 0.0 | 1.6 | 0.00 | 0.00 | 0.00 | 28 | 1016.4 |
| 20260510192612 | 27 | 26 | 1.6 | 1.6 | 0.00 | 0.00 | 0.00 | 28 | 1016.4 |
| 20260510192108 | 27 | 200 | 0.0 | 1.6 | 0.00 | 0.00 | 0.00 | 28 | 1016.3 |
| 20260510191605 | 27 | 227 | 3.2 | 3.2 | 0.00 | 0.00 | 0.00 | 27 | 1016.4 |
| 20260510191102 | 27 | 299 | 1.6 | 1.6 | 0.00 | 0.00 | 0.00 | 27 | 1016.4 |
| 20260510190559 | 27 | 209 | 0.0 | 3.2 | 0.00 | 0.00 | 0.00 | 27 | 1016.4 |
| 20260510190057 | 26 | 203 | 3.2 | 6.4 | 0.00 | 0.00 | 0.00 | 28 | 1016.5 |
| 20260510185554 | 27 | 149 | 3.2 | 4.8 | 0.00 | 0.00 | 0.00 | 27 | 1016.4 |
| 20260510185051 | 26 | 242 | 3.2 | 3.2 | 0.00 | 0.00 | 0.00 | 28 | 1016.5 |
| 20260510184548 | 27 | 294 | 1.6 | 4.8 | 0.00 | 0.00 | 0.00 | 28 | 1016.5 |
| 20260510184043 | 27 | 204 | 3.2 | 4.8 | 0.00 | 0.00 | 0.00 | 28 | 1016.5 |
| 20260510183538 | 27 | 233 | 4.8 | 4.8 | 0.00 | 0.00 | 0.00 | 27 | 1016.5 |
| 20260510183034 | 27 | 229 | 0.0 | 1.6 | 0.00 | 0.00 | 0.00 | 29 | 1016.6 |
| 20260510182531 | 27 | 193 | 1.6 | 4.8 | 0.00 | 0.00 | 0.00 | 30 | 1016.5 |
| 20260510182026 | 26 | 154 | 1.6 | 3.2 | 0.00 | 0.00 | 0.00 | 29 | 1016.4 |
| 20260510181525 | 26 | 180 | 1.6 | 3.2 | 0.00 | 0.00 | 0.00 | 28 | 1016.6 |
| 20260510181020 | 26 | 142 | 1.6 | 1.6 | 0.00 | 0.00 | 0.00 | 29 | 1016.8 |
| 20260510180517 | 26 | 212 | 1.6 | 4.8 | 0.00 | 0.00 | 0.00 | 29 | 1016.8 |
| 20260510180015 | 27 | 275 | 3.2 | 6.4 | 0.00 | 0.00 | 0.00 | 33 | 1016.8 |
| 20260510175510 | 27 | 176 | 3.2 | 6.4 | 0.00 | 0.00 | 0.00 | 29 | 1016.9 |
| 20260510175006 | 27 | 149 | 1.6 | 1.6 | 0.00 | 0.00 | 0.00 | 30 | 1016.9 |
| 20260510174504 | 27 | 218 | 1.6 | 3.2 | 0.00 | 0.00 | 0.00 | 27 | 1017.0 |
| 20260510174001 | 27 | 138 | 3.2 | 4.8 | 0.00 | 0.00 | 0.00 | 29 | 1017.0 |
| 20260510173457 | 26 | 173 | 3.2 | 3.2 | 0.00 | 0.00 | 0.00 | 28 | 1017.2 |
| 20260510172953 | 27 | 171 | 1.6 | 3.2 | 0.00 | 0.00 | 0.00 | 29 | 1017.3 |
| 20260510172449 | 26 | 189 | 3.2 | 4.8 | 0.00 | 0.00 | 0.00 | 29 | 1017.3 |
| 20260510171945 | 27 | 223 | 4.8 | 4.8 | 0.00 | 0.00 | 0.00 | 29 | 1017.4 |
| 20260510171443 | 27 | 170 | 3.2 | 4.8 | 0.00 | 0.00 | 0.00 | 27 | 1017.4 |
| 20260510170939 | 26 | 148 | 1.6 | 3.2 | 0.00 | 0.00 | 0.00 | 29 | 1017.3 |
| 20260510170436 | 26 | 278 | 0.0 | 1.6 | 0.00 | 0.00 | 0.00 | 30 | 1017.5 |
| 20260510165932 | 26 | 244 | 3.2 | 4.8 | 0.00 | 0.00 | 0.00 | 30 | 1017.2 |
| 20260510165428 | 26 | 163 | 3.2 | 3.2 | 0.00 | 0.00 | 0.00 | 31 | 1017.4 |
| 20260510164925 | 26 | 159 | 4.8 | 6.4 | 0.00 | 0.00 | 0.00 | 29 | 1017.4 |
| 20260510164422 | 26 | 178 | 3.2 | 4.8 | 0.00 | 0.00 | 0.00 | 33 | 1017.5 |
| 20260510163916 | 26 | 261 | 1.6 | 4.8 | 0.00 | 0.00 | 0.00 | 27 | 1017.4 |
| 20260510163408 | 26 | 206 | 0.0 | 1.6 | 0.00 | 0.00 | 0.00 | 29 | 1017.4 |
| 20260510162907 | 26 | 143 | 0.0 | 1.6 | 0.00 | 0.00 | 0.00 | 28 | 1017.6 |
| 20260510162405 | 26 | 183 | 3.2 | 3.2 | 0.00 | 0.00 | 0.00 | 25 | 1017.5 |
| 20260510161900 | 25 | 142 | 3.2 | 4.8 | 0.00 | 0.00 | 0.00 | 33 | 1017.4 |
| 20260510161356 | 25 | 127 | 1.6 | 3.2 | 0.00 | 0.00 | 0.00 | 32 | 1017.5 |
| 20260510160853 | 25 | 11 | 3.2 | 4.8 | 0.00 | 0.00 | 0.00 | 33 | 1017.5 |
| 20260510160351 | 25 | 57 | 1.6 | 1.6 | 0.00 | 0.00 | 0.00 | 36 | 1017.6 |
| 20260510155849 | 25 | 99 | 3.2 | 3.2 | 0.00 | 0.00 | 0.00 | 35 | 1017.5 |
| 20260510155347 | 25 | 68 | 1.6 | 3.2 | 0.00 | 0.00 | 0.00 | 35 | 1017.6 |
| 20260510154843 | 25 | 110 | 3.2 | 3.2 | 0.00 | 0.00 | 0.00 | 37 | 1017.6 |
| 20260510154339 | 25 | 49 | 0.0 | 3.2 | 0.00 | 0.00 | 0.00 | 36 | 1017.7 |
| 20260510153833 | 25 | 15 | 1.6 | 4.8 | 0.00 | 0.00 | 0.00 | 35 | 1017.7 |
| 20260510153329 | 25 | 69 | 1.6 | 3.2 | 0.00 | 0.00 | 0.00 | 35 | 1017.6 |
| 20260510152826 | 25 | 37 | 1.6 | 4.8 | 0.00 | 0.00 | 0.00 | 37 | 1017.7 |
| 20260510152323 | 25 | 78 | 0.0 | 3.2 | 0.00 | 0.00 | 0.00 | 39 | 1017.8 |
| 20260510151820 | 25 | 27 | 1.6 | 1.6 | 0.00 | 0.00 | 0.00 | 38 | 1017.8 |
| 20260510151318 | 25 | 50 | 1.6 | 3.2 | 0.00 | 0.00 | 0.00 | 38 | 1017.7 |
| 20260510150813 | 25 | 278 | 0.0 | 1.6 | 0.00 | 0.00 | 0.00 | 36 | 1017.7 |
| 20260510150309 | 25 | 1 | 3.2 | 3.2 | 0.00 | 0.00 | 0.00 | 39 | 1017.7 |
| 20260510145805 | 25 | 275 | 0.0 | 3.2 | 0.00 | 0.00 | 0.00 | 39 | 1017.7 |
| 20260510145305 | 24 | 104 | 0.0 | 1.6 | 0.00 | 0.00 | 0.00 | 41 | 1017.8 |
| 20260510144758 | 23 | 46 | 0.0 | 3.2 | 0.00 | 0.00 | 0.00 | 48 | 1017.7 |
| 20260510144255 | 23 | 113 | 0.0 | 0.0 | 0.00 | 0.00 | 0.00 | 47 | 1017.7 |
| 20260510143750 | 22 | 143 | 3.2 | 3.2 | 0.00 | 0.00 | 0.00 | 47 | 1017.7 |
| 20260510143246 | 22 | 2 | 0.0 | 3.2 | 0.00 | 0.00 | 0.00 | 49 | 1017.8 |
| 20260510142743 | 22 | 355 | 1.6 | 3.2 | 0.00 | 0.00 | 0.00 | 50 | 1017.9 |
| 20260510142240 | 22 | 46 | 1.6 | 3.2 | 0.00 | 0.00 | 0.00 | 49 | 1017.8 |
| 20260510141737 | 22 | 213 | 1.6 | 3.2 | 0.00 | 0.00 | 0.00 | 48 | 1017.7 |
| 20260510141235 | 22 | 264 | 0.0 | 1.6 | 0.00 | 0.00 | 0.00 | 54 | 1017.8 |
| 20260510140731 | 22 | 357 | 3.2 | 4.8 | 0.00 | 0.00 | 0.00 | 52 | 1017.8 |
| 20260510140226 | 22 | 262 | 0.0 | 1.6 | 0.00 | 0.00 | 0.00 | 62 | 1017.7 |
| 20260510135720 | 22 | 248 | 0.0 | 3.2 | 0.00 | 0.00 | 0.00 | 61 | 1017.8 |
| 20260510135216 | 22 | 249 | 0.0 | 1.6 | 0.00 | 0.00 | 0.00 | 60 | 1017.8 |
| 20260510134714 | 21 | 248 | 0.0 | 1.6 | 0.00 | 0.00 | 0.00 | 61 | 1017.8 |
| 20260510134211 | 21 | 247 | 1.6 | 1.6 | 0.00 | 0.00 | 0.00 | 66 | 1017.8 |
| 20260510133707 | 20 | 247 | 1.6 | 1.6 | 0.00 | 0.00 | 0.00 | 65 | 1017.7 |
| 20260510133203 | 20 | 247 | 0.0 | 1.6 | 0.00 | 0.00 | 0.00 | 69 | 1017.5 |
| 20260510132659 | 20 | 248 | 0.0 | 0.0 | 0.00 | 0.00 | 0.00 | 73 | 1017.5 |
| 20260510132156 | 19 | 248 | 0.0 | 3.2 | 0.00 | 0.00 | 0.00 | 73 | 1017.7 |
| 20260510131654 | 19 | 262 | 0.0 | 3.2 | 0.00 | 0.00 | 0.00 | 74 | 1017.6 |
| 20260510131151 | 18 | 261 | 0.0 | 1.6 | 0.00 | 0.00 | 0.00 | 78 | 1017.5 |
| 20260510130648 | 18 | 261 | 0.0 | 0.0 | 0.00 | 0.00 | 0.00 | 77 | 1017.5 |
| 20260510130145 | 18 | 262 | 0.0 | 1.6 | 0.00 | 0.00 | 0.00 | 80 | 1017.4 |
| 20260510125641 | 17 | 262 | 0.0 | 1.6 | 0.00 | 0.00 | 0.00 | 84 | 1017.4 |
| 20260510125137 | 17 | 262 | 1.6 | 1.6 | 0.00 | 0.00 | 0.00 | 85 | 1017.3 |
| 20260510124635 | 17 | 262 | 0.0 | 1.6 | 0.00 | 0.00 | 0.00 | 87 | 1017.4 |
| 20260510124131 | 16 | 262 | 0.0 | 1.6 | 0.00 | 0.00 | 0.00 | 89 | 1017.4 |
| 20260510123627 | 16 | 262 | 1.6 | 1.6 | 0.00 | 0.00 | 0.00 | 90 | 1017.3 |
| 20260510123123 | 16 | 262 | 0.0 | 0.0 | 0.00 | 0.00 | 0.00 | 91 | 1017.5 |
| 20260510122619 | 16 | 262 | 0.0 | 0.0 | 0.00 | 0.00 | 0.00 | 92 | 1017.3 |
| 20260510122115 | 15 | 262 | 0.0 | 1.6 | 0.00 | 0.00 | 0.00 | 92 | 1017.1 |
| 20260510121612 | 15 | 261 | 0.0 | 1.6 | 0.00 | 0.00 | 0.00 | 93 | 1017.2 |
| 20260510121110 | 15 | 261 | 0.0 | 1.6 | 0.00 | 0.00 | 0.00 | 94 | 1016.9 |
| 20260510120608 | 15 | 261 | 0.0 | 0.0 | 0.00 | 0.00 | 0.00 | 95 | 1016.9 |
| 20260510115559 | 14 | 261 | 0.0 | 0.0 | 0.00 | 0.00 | 0.00 | 96 | 1016.8 |
| 20260510115056 | 14 | 261 | 0.0 | 0.0 | 0.00 | 0.00 | 0.00 | 96 | 1016.4 |
| 20260510114552 | 13 | 261 | 0.0 | 0.0 | 0.00 | 0.00 | 0.00 | 96 | 1016.4 |
| 20260510114048 | 13 | 261 | 0.0 | 0.0 | 0.00 | 0.00 | 0.00 | 97 | 1016.3 |
| 20260510113544 | 13 | 261 | 0.0 | 0.0 | 0.00 | 0.00 | 0.00 | 98 | 1016.4 |
| 20260510113042 | 12 | 261 | 0.0 | 0.0 | 0.00 | 0.00 | 0.00 | 98 | 1016.2 |
| 20260510112538 | 12 | 261 | 0.0 | 0.0 | 0.00 | 0.00 | 0.00 | 98 | 1016.3 |
| 20260510112034 | 12 | 261 | 0.0 | 0.0 | 0.00 | 0.00 | 0.00 | 98 | 1016.3 |
| 20260510111531 | 11 | 261 | 0.0 | 0.0 | 0.00 | 0.00 | 0.00 | 98 | 1016.2 |
| 20260510111027 | 11 | 261 | 0.0 | 0.0 | 0.00 | 0.00 | 0.00 | 98 | 1015.9 |
| 20260510110523 | 11 | 261 | 0.0 | 0.0 | 0.00 | 0.00 | 0.00 | 98 | 1015.9 |
| 20260510110020 | 11 | 261 | 0.0 | 0.0 | 0.00 | 0.00 | 0.00 | 98 | 1015.7 |
| 20260510105515 | 11 | 260 | 0.0 | 0.0 | 0.00 | 0.00 | 0.00 | 98 | 1015.7 |
| 20260510105010 | 11 | 260 | 0.0 | 0.0 | 0.00 | 0.00 | 0.00 | 98 | 1015.6 |
| 20260510104507 | 11 | 260 | 0.0 | 0.0 | 0.00 | 0.00 | 0.00 | 98 | 1015.6 |
| 20260510104004 | 11 | 260 | 0.0 | 0.0 | 0.00 | 0.00 | 0.00 | 98 | 1015.3 |
| 20260510103501 | 11 | 260 | 0.0 | 0.0 | 0.00 | 0.00 | 0.00 | 98 | 1015.3 |
| 20260510102956 | 11 | 260 | 0.0 | 0.0 | 0.00 | 0.00 | 0.00 | 98 | 1015.0 |
| 20260510102452 | 11 | 260 | 0.0 | 0.0 | 0.00 | 0.00 | 0.00 | 98 | 1015.1 |
| 20260510101949 | 11 | 260 | 0.0 | 0.0 | 0.00 | 0.00 | 0.00 | 98 | 1015.2 |
| 20260510101446 | 11 | 260 | 0.0 | 0.0 | 0.00 | 0.00 | 0.00 | 98 | 1015.2 |
| 20260510100944 | 11 | 260 | 0.0 | 0.0 | 0.00 | 0.00 | 0.00 | 98 | 1015.1 |
| 20260510100441 | 12 | 260 | 0.0 | 0.0 | 0.00 | 0.00 | 0.00 | 98 | 1015.0 |
| 20260510095937 | 12 | 260 | 0.0 | 0.0 | 0.00 | 0.00 | 0.00 | 98 | 1014.8 |
| 20260510095432 | 12 | 260 | 0.0 | 0.0 | 0.00 | 0.00 | 0.00 | 98 | 1014.6 |
| 20260510094931 | 12 | 260 | 0.0 | 0.0 | 0.00 | 0.00 | 0.00 | 98 | 1014.8 |
| 20260510094427 | 12 | 260 | 0.0 | 0.0 | 0.00 | 0.00 | 0.00 | 98 | 1014.6 |
| 20260510093923 | 12 | 260 | 0.0 | 0.0 | 0.00 | 0.00 | 0.00 | 98 | 1014.6 |
| 20260510093418 | 12 | 260 | 0.0 | 0.0 | 0.00 | 0.00 | 0.00 | 98 | 1014.7 |
| 20260510092915 | 12 | 260 | 0.0 | 0.0 | 0.00 | 0.00 | 0.00 | 98 | 1014.6 |
| 20260510092413 | 12 | 260 | 0.0 | 0.0 | 0.00 | 0.00 | 0.00 | 98 | 1014.5 |
| 20260510091907 | 12 | 260 | 0.0 | 0.0 | 0.00 | 0.00 | 0.00 | 98 | 1014.6 |
| 20260510091404 | 12 | 260 | 0.0 | 0.0 | 0.00 | 0.00 | 0.00 | 98 | 1014.6 |
| 20260510090901 | 12 | 260 | 0.0 | 0.0 | 0.00 | 0.00 | 0.00 | 98 | 1014.5 |
| 20260510090357 | 13 | 261 | 0.0 | 0.0 | 0.00 | 0.00 | 0.00 | 98 | 1014.5 |
| 20260510085853 | 12 | 261 | 0.0 | 0.0 | 0.00 | 0.00 | 0.00 | 98 | 1014.4 |
| 20260510085348 | 13 | 261 | 0.0 | 0.0 | 0.00 | 0.00 | 0.00 | 98 | 1014.3 |
| 20260510084844 | 13 | 261 | 0.0 | 0.0 | 0.00 | 0.00 | 0.00 | 97 | 1014.3 |
| 20260510084341 | 13 | 261 | 0.0 | 0.0 | 0.00 | 0.00 | 0.00 | 97 | 1014.2 |
| 20260510083838 | 13 | 261 | 0.0 | 0.0 | 0.00 | 0.00 | 0.00 | 97 | 1014.2 |
| 20260510083335 | 13 | 261 | 0.0 | 0.0 | 0.00 | 0.00 | 0.00 | 97 | 1014.1 |
| 20260510082830 | 13 | 261 | 0.0 | 0.0 | 0.00 | 0.00 | 0.00 | 97 | 1014.1 |
| 20260510082328 | 13 | 261 | 0.0 | 0.0 | 0.00 | 0.00 | 0.00 | 97 | 1013.9 |
| 20260510081826 | 13 | 261 | 0.0 | 1.6 | 0.00 | 0.00 | 0.00 | 97 | 1013.9 |
| 20260510081323 | 13 | 261 | 0.0 | 0.0 | 0.00 | 0.00 | 0.00 | 97 | 1013.9 |
| 20260510080819 | 13 | 261 | 0.0 | 0.0 | 0.00 | 0.00 | 0.00 | 97 | 1013.7 |
| 20260510080313 | 13 | 261 | 0.0 | 0.0 | 0.00 | 0.00 | 0.00 | 97 | 1013.7 |
| 20260510075810 | 13 | 261 | 0.0 | 0.0 | 0.00 | 0.00 | 0.00 | 97 | 1013.9 |
| 20260510075308 | 13 | 261 | 0.0 | 0.0 | 0.00 | 0.00 | 0.00 | 97 | 1013.8 |
| 20260510074804 | 13 | 261 | 0.0 | 0.0 | 0.00 | 0.00 | 0.00 | 97 | 1013.6 |
| 20260510074301 | 13 | 261 | 0.0 | 0.0 | 0.00 | 0.00 | 0.00 | 97 | 1013.6 |
| 20260510073757 | 13 | 261 | 0.0 | 0.0 | 0.00 | 0.00 | 0.00 | 97 | 1013.7 |
| 20260510073253 | 13 | 261 | 0.0 | 0.0 | 0.00 | 0.00 | 0.00 | 97 | 1013.6 |
| 20260510072749 | 13 | 261 | 0.0 | 1.6 | 0.00 | 0.00 | 0.00 | 96 | 1013.6 |
| 20260510072246 | 13 | 261 | 0.0 | 1.6 | 0.00 | 0.00 | 0.00 | 96 | 1013.5 |
| 20260510071742 | 13 | 261 | 0.0 | 0.0 | 0.00 | 0.00 | 0.00 | 96 | 1013.4 |
| 20260510071239 | 14 | 261 | 0.0 | 0.0 | 0.00 | 0.00 | 0.00 | 97 | 1013.5 |
| 20260510070738 | 14 | 261 | 0.0 | 1.6 | 0.00 | 0.00 | 0.00 | 97 | 1013.2 |
| 20260510070235 | 14 | 261 | 0.0 | 0.0 | 0.00 | 0.00 | 0.00 | 97 | 1013.4 |
| 20260510065734 | 14 | 261 | 0.0 | 0.0 | 0.00 | 0.00 | 0.00 | 97 | 1013.3 |
| 20260510065231 | 14 | 261 | 0.0 | 0.0 | 0.00 | 0.00 | 0.00 | 97 | 1013.2 |
| 20260510064728 | 14 | 261 | 0.0 | 0.0 | 0.00 | 0.00 | 0.00 | 97 | 1013.4 |
| 20260510064226 | 14 | 261 | 0.0 | 0.0 | 0.00 | 0.00 | 0.00 | 97 | 1013.4 |
| 20260510063722 | 14 | 261 | 0.0 | 0.0 | 0.00 | 0.00 | 0.00 | 97 | 1013.4 |
| 20260510063218 | 15 | 261 | 0.0 | 0.0 | 0.00 | 0.00 | 0.00 | 96 | 1013.3 |
| 20260510062715 | 15 | 261 | 0.0 | 0.0 | 0.00 | 0.00 | 0.00 | 96 | 1013.3 |
| 20260510062211 | 15 | 261 | 0.0 | 0.0 | 0.00 | 0.00 | 0.00 | 96 | 1013.3 |
| 20260510061706 | 15 | 261 | 0.0 | 0.0 | 0.00 | 0.00 | 0.00 | 96 | 1013.6 |
| 20260510061204 | 14 | 261 | 0.0 | 0.0 | 0.00 | 0.00 | 0.00 | 96 | 1013.4 |
| 20260510060700 | 14 | 261 | 0.0 | 0.0 | 0.00 | 0.00 | 0.00 | 96 | 1013.4 |
| 20260510060157 | 15 | 261 | 0.0 | 0.0 | 0.00 | 0.00 | 0.00 | 96 | 1013.4 |
| 20260510055653 | 15 | 261 | 0.0 | 0.0 | 0.00 | 0.00 | 0.00 | 96 | 1013.4 |
| 20260510055151 | 15 | 261 | 0.0 | 1.6 | 0.00 | 0.00 | 0.00 | 96 | 1013.7 |
| 20260510054646 | 15 | 261 | 0.0 | 0.0 | 0.00 | 0.00 | 0.00 | 96 | 1013.7 |
| 20260510054143 | 15 | 261 | 0.0 | 0.0 | 0.00 | 0.00 | 0.00 | 96 | 1013.7 |
| 20260510053641 | 15 | 261 | 0.0 | 0.0 | 0.00 | 0.00 | 0.00 | 96 | 1013.6 |
| 20260510053138 | 15 | 261 | 0.0 | 0.0 | 0.00 | 0.00 | 0.00 | 96 | 1013.6 |
| 20260510052634 | 15 | 261 | 0.0 | 0.0 | 0.00 | 0.00 | 0.00 | 96 | 1013.7 |
| 20260510052131 | 15 | 261 | 0.0 | 0.0 | 0.00 | 0.00 | 0.00 | 96 | 1013.8 |
| 20260510051626 | 15 | 261 | 0.0 | 0.0 | 0.00 | 0.00 | 0.00 | 96 | 1013.8 |
| 20260510051123 | 15 | 261 | 0.0 | 0.0 | 0.00 | 0.00 | 0.00 | 95 | 1013.8 |
| 20260510050620 | 15 | 261 | 0.0 | 0.0 | 0.00 | 0.00 | 0.00 | 95 | 1014.0 |
| 20260510050118 | 15 | 261 | 0.0 | 0.0 | 0.00 | 0.00 | 0.00 | 95 | 1014.0 |
| 20260510045615 | 15 | 261 | 0.0 | 0.0 | 0.00 | 0.00 | 0.00 | 95 | 1014.1 |
| 20260510045111 | 15 | 261 | 0.0 | 0.0 | 0.00 | 0.00 | 0.00 | 95 | 1013.8 |
| 20260510044607 | 15 | 261 | 0.0 | 0.0 | 0.00 | 0.00 | 0.00 | 95 | 1014.0 |
| 20260510044105 | 15 | 261 | 0.0 | 0.0 | 0.00 | 0.00 | 0.00 | 95 | 1013.9 |
| 20260510043600 | 15 | 261 | 0.0 | 0.0 | 0.00 | 0.00 | 0.00 | 94 | 1013.7 |
| 20260510043056 | 15 | 261 | 0.0 | 0.0 | 0.00 | 0.00 | 0.00 | 94 | 1014.0 |
| 20260510042555 | 15 | 261 | 0.0 | 0.0 | 0.00 | 0.00 | 0.00 | 95 | 1013.7 |
| 20260510042050 | 15 | 261 | 0.0 | 0.0 | 0.00 | 0.00 | 0.00 | 94 | 1013.9 |
| 20260510041548 | 15 | 262 | 0.0 | 0.0 | 0.00 | 0.00 | 0.00 | 94 | 1014.0 |
| 20260510041045 | 15 | 255 | 0.0 | 0.0 | 0.00 | 0.00 | 0.00 | 93 | 1014.1 |
| 20260510040542 | 16 | 251 | 0.0 | 0.0 | 0.00 | 0.00 | 0.00 | 94 | 1014.1 |
| 20260510040038 | 16 | 251 | 0.0 | 0.0 | 0.00 | 0.00 | 0.00 | 93 | 1013.8 |
| 20260510035534 | 16 | 252 | 0.0 | 0.0 | 0.00 | 0.00 | 0.00 | 93 | 1013.9 |
| 20260510035033 | 16 | 252 | 0.0 | 0.0 | 0.00 | 0.00 | 0.00 | 93 | 1014.0 |
| 20260510034532 | 16 | 252 | 0.0 | 0.0 | 0.00 | 0.00 | 0.00 | 93 | 1014.0 |
| 20260510034028 | 16 | 252 | 0.0 | 0.0 | 0.00 | 0.00 | 0.00 | 93 | 1013.9 |
| 20260510033524 | 16 | 252 | 0.0 | 0.0 | 0.00 | 0.00 | 0.00 | 92 | 1014.1 |
| 20260510033023 | 16 | 252 | 0.0 | 0.0 | 0.00 | 0.00 | 0.00 | 92 | 1014.0 |
| 20260510032519 | 16 | 252 | 0.0 | 0.0 | 0.00 | 0.00 | 0.00 | 92 | 1014.1 |
| 20260510032014 | 16 | 252 | 0.0 | 0.0 | 0.00 | 0.00 | 0.00 | 92 | 1013.9 |
| 20260510031509 | 16 | 252 | 0.0 | 0.0 | 0.00 | 0.00 | 0.00 | 92 | 1013.9 |
| 20260510031006 | 16 | 252 | 0.0 | 0.0 | 0.00 | 0.00 | 0.00 | 91 | 1013.8 |
| 20260510030456 | 16 | 252 | 0.0 | 0.0 | 0.00 | 0.00 | 0.00 | 90 | 1013.8 |
| 20260510025953 | 16 | 252 | 0.0 | 0.0 | 0.00 | 0.00 | 0.00 | 90 | 1013.9 |
| 20260510025451 | 16 | 252 | 0.0 | 0.0 | 0.00 | 0.00 | 0.00 | 90 | 1014.0 |
| 20260510024948 | 17 | 252 | 0.0 | 0.0 | 0.00 | 0.00 | 0.00 | 89 | 1013.8 |
| 20260510024444 | 17 | 252 | 0.0 | 0.0 | 0.00 | 0.00 | 0.00 | 89 | 1014.1 |
| 20260510023940 | 17 | 252 | 0.0 | 0.0 | 0.00 | 0.00 | 0.00 | 89 | 1013.8 |
| 20260510023436 | 17 | 253 | 0.0 | 0.0 | 0.00 | 0.00 | 0.00 | 89 | 1013.9 |
| 20260510022933 | 17 | 253 | 0.0 | 0.0 | 0.00 | 0.00 | 0.00 | 88 | 1013.8 |
| 20260510022432 | 17 | 253 | 0.0 | 0.0 | 0.00 | 0.00 | 0.00 | 87 | 1013.6 |
| 20260510021931 | 17 | 253 | 0.0 | 0.0 | 0.00 | 0.00 | 0.00 | 87 | 1013.6 |
| 20260510021430 | 17 | 253 | 0.0 | 0.0 | 0.00 | 0.00 | 0.00 | 86 | 1013.7 |
| 20260510020927 | 18 | 253 | 0.0 | 0.0 | 0.00 | 0.00 | 0.00 | 86 | 1013.7 |
| 20260510020426 | 18 | 253 | 0.0 | 0.0 | 0.00 | 0.00 | 0.00 | 85 | 1013.6 |
| 20260510015922 | 18 | 253 | 0.0 | 0.0 | 0.00 | 0.00 | 0.00 | 85 | 1013.5 |
| 20260510015418 | 18 | 253 | 0.0 | 0.0 | 0.00 | 0.00 | 0.00 | 84 | 1013.4 |
| 20260510014913 | 18 | 253 | 0.0 | 0.0 | 0.00 | 0.00 | 0.00 | 84 | 1013.4 |
| 20260510014412 | 18 | 255 | 1.6 | 1.6 | 0.00 | 0.00 | 0.00 | 84 | 1013.3 |
| 20260510013908 | 18 | 224 | 0.0 | 0.0 | 0.00 | 0.00 | 0.00 | 84 | 1013.2 |
| 20260510013403 | 18 | 224 | 0.0 | 0.0 | 0.00 | 0.00 | 0.00 | 83 | 1013.4 |
| 20260510012858 | 18 | 224 | 0.0 | 0.0 | 0.00 | 0.00 | 0.00 | 83 | 1012.9 |
| 20260510012353 | 18 | 224 | 0.0 | 0.0 | 0.00 | 0.00 | 0.00 | 82 | 1013.1 |
| 20260510011848 | 19 | 223 | 0.0 | 0.0 | 0.00 | 0.00 | 0.00 | 82 | 1013.1 |
| 20260510011343 | 19 | 223 | 0.0 | 0.0 | 0.00 | 0.00 | 0.00 | 81 | 1012.9 |
| 20260510010840 | 19 | 223 | 0.0 | 0.0 | 0.00 | 0.00 | 0.00 | 81 | 1012.7 |
| 20260510010338 | 19 | 224 | 0.0 | 1.6 | 0.00 | 0.00 | 0.00 | 80 | 1012.6 |
| 20260510005834 | 19 | 214 | 1.6 | 1.6 | 0.00 | 0.00 | 0.00 | 81 | 1012.9 |
| 20260510005330 | 19 | 206 | 0.0 | 1.6 | 0.00 | 0.00 | 0.00 | 81 | 1012.7 |
| 20260510004828 | 18 | 203 | 0.0 | 0.0 | 0.00 | 0.00 | 0.00 | 81 | 1012.4 |
| 20260510004326 | 18 | 245 | 0.0 | 0.0 | 0.00 | 0.00 | 0.00 | 81 | 1012.5 |
| 20260510003823 | 18 | 246 | 0.0 | 1.6 | 0.00 | 0.00 | 0.00 | 81 | 1012.4 |
| 20260510003320 | 18 | 247 | 1.6 | 1.6 | 0.00 | 0.00 | 0.00 | 81 | 1012.2 |
| 20260510002818 | 18 | 198 | 0.0 | 0.0 | 0.00 | 0.00 | 0.00 | 81 | 1011.8 |
| 20260510002316 | 19 | 198 | 0.0 | 0.0 | 0.00 | 0.00 | 0.00 | 80 | 1012.2 |
| 20260510001812 | 19 | 198 | 0.0 | 0.0 | 0.00 | 0.00 | 0.00 | 80 | 1012.0 |
| 20260510001311 | 19 | 198 | 0.0 | 0.0 | 0.00 | 0.00 | 0.00 | 79 | 1011.7 |
| 20260510000806 | 19 | 197 | 0.0 | 0.0 | 0.00 | 0.00 | 0.00 | 79 | 1011.7 |
| 20260510000304 | 20 | 197 | 0.0 | 0.0 | 0.00 | 0.00 | 0.00 | 79 | 1011.8 |
| 20260509235801 | 20 | 197 | 0.0 | 0.0 | 0.00 | 0.00 | 0.00 | 78 | 1011.8 |
| 20260509235257 | 20 | 198 | 0.0 | 0.0 | 0.00 | 0.00 | 0.00 | 76 | 1011.4 |
| 20260509234753 | 20 | 221 | 1.6 | 1.6 | 0.00 | 0.00 | 0.00 | 74 | 1011.6 |
| 20260509234250 | 20 | 213 | 1.6 | 1.6 | 0.00 | 0.00 | 0.00 | 74 | 1011.5 |
| 20260509233748 | 20 | 227 | 0.0 | 3.2 | 0.00 | 0.00 | 0.00 | 73 | 1011.5 |
| 20260509233246 | 21 | 230 | 3.2 | 3.2 | 0.00 | 0.00 | 0.00 | 72 | 1011.3 |
| 20260509232741 | 21 | 226 | 0.0 | 3.2 | 0.00 | 0.00 | 0.00 | 73 | 1011.5 |
| 20260509232239 | 21 | 233 | 1.6 | 1.6 | 0.00 | 0.00 | 0.00 | 73 | 1011.4 |
| 20260509231735 | 21 | 199 | 3.2 | 4.8 | 0.00 | 0.00 | 0.00 | 72 | 1011.7 |
| 20260509231232 | 21 | 228 | 1.6 | 3.2 | 0.00 | 0.00 | 0.00 | 72 | 1011.4 |
| 20260509230730 | 21 | 228 | 3.2 | 4.8 | 0.00 | 0.00 | 0.00 | 72 | 1011.5 |
| 20260509230227 | 21 | 207 | 3.2 | 6.4 | 0.00 | 0.00 | 0.00 | 72 | 1011.6 |
| 20260509225721 | 21 | 234 | 1.6 | 9.7 | 0.00 | 0.00 | 0.00 | 72 | 1011.5 |
| 20260509225218 | 21 | 222 | 3.2 | 3.2 | 0.00 | 0.00 | 0.00 | 72 | 1011.1 |